Regional Weather Roundup
Issued by NWS

Home | Current Version | Previous Version | Text Only | Print | Product List | Glossary On
Versions: 1 2 3 4 5 6 7 8 9 10 11 12 13 14 15 16 17 18 19 20 21 22 23 24 25 26 27 28 29 30 31 32 33 34 35 36 37 38 39 40 41 42 43 44 45 46 47 48 49 50
000
ASCA44 KEWX 230420
RWRMX

LATIN AMERICA AND CARIBBEAN REGIONAL WEATHER ROUNDUP
NATIONAL WEATHER SERVICE AUSTIN/SAN ANTONIO TX
1100 PM CDT TUE JUL 22 2014

NOTE: "FAIR" INDICATED FEW OR NO CLOUDS BELOW 12,000 FEET WITH NO
SIGNIFICANT WEATHER AND/OR OBSTRUCTIONS TO VISIBILITY.

BAJA CALIFORNIA

CITY           SKY/WX    TMP DP  RH WIND       PRES   REMARKS
LA PAZ         PTCLDY    90  64  43 S9        29.88R HX  91
MEXICALI       CLEAR    102  36  10 NW5       29.80R HX  96
S.J. DEL CABO  PTCLDY    88  61  40 NE5       29.90R
TIJUANA        CLEAR     70  61  73 W7        30.02R

NORTHWESTERN MEXICO

CITY           SKY/WX    TMP DP  RH WIND       PRES   REMARKS
CULIACAN       MOCLDY    91  77  62 CALM      29.84F HX 105
DURANGO        PTCLDY    72  50  46 NW6       30.26R
HERMOSILLO     MOCLDY   100  55  22 S3        29.86R HX  99
CD. JUAREZ     CLOUDY    77  68  73 CALM      30.13F
LOS MOCHIS       N/A    N/A N/A N/A MISG        N/A
OBREGON        PTCLDY    90  66  45 SW2       29.81R HX  92

NORTHEASTERN MEXICO

CITY           SKY/WX    TMP DP  RH WIND       PRES   REMARKS
CHIHUAHUA      PTCLDY    73  55  53 S5        30.17R
MONTERREY      CLEAR     86  57  37 E7        29.96R
NUEVO LAREDO   CLEAR     91  77  62 SE12      29.98R HX 105
REYNOSA        CLEAR     81  72  74 SE14      29.99R
SALTILLO       CLEAR     75  59  57 E9        30.24R
TORREON        PTCLDY    84  54  34 NE6       30.09R
CD. VICTORIA   CLEAR     82  70  65 SE9G21    29.99R

WESTERN MEXICO

CITY           SKY/WX    TMP DP  RH WIND       PRES   REMARKS
AGUASCALIENTES CLEAR     63  46  55 NE6       30.32R
DEL BAJIO      CLEAR     68  50  52 NE6       30.33R
GUADALAJARA    CLEAR     66  55  68 CALM      30.18S
MAZATLAN       MOCLDY    84  75  74 W7        29.85R HX  92
P. VALLARTA    MOCLDY    86  70  58 CALM      29.88R HX  90
ZACATECAS      PTCLDY    66  43  42 SE10      30.35R

CENTRAL MEXICO

CITY           SKY/WX    TMP DP  RH WIND       PRES   REMARKS
MEXICO CITY    MOCLDY    64  50  59 NE8       30.39R
MORELIA        CLEAR     61  54  77 CALM      30.28R
PUEBLA         PTCLDY    57  52  82 NW12      30.41R
QUERETARO      CLEAR     64  54  68 NE5       30.36R
S. LUIS POTOSI CLEAR     64  50  59 SE7       30.34R
TAMPICO        CLEAR     81  73  78 SE7       30.00R
TOLUCA         PTCLDY    52  46  82 CALM      30.48S

SOUTHERN MEXICO

CITY           SKY/WX    TMP DP  RH WIND       PRES   REMARKS
ACAPULCO       PTCLDY    86  79  79 W9        29.85R HX  99
OAXACA         CLEAR     72  50  46 NE6       30.28R
VERACRUZ       PTCLDY    82  75  78 NE5       30.00R

YUCATAN PENINSULA

CITY           SKY/WX    TMP DP  RH WIND       PRES   REMARKS
CAMPECHE       DRIZZLE   75  73  94 E7        29.98F
CANCUN         PTCLDY    82  77  83 E2        30.04S HX  91
COZUMEL        MOCLDY    77  73  88 SE8       30.06R
MERIDA         MOCLDY    75  75 100 CALM      30.05R
TAPACHULA      MOCLDY    77  73  88 CALM      29.89R
TUX. GUTIERREZ PTCLDY    79  68  69 S5        29.99R
VILLAHERMOSA   CLEAR     82  77  83 NE10      29.99R HX  91

CENTRAL AMERICA

CITY           SKY/WX    TMP DP  RH WIND       PRES   REMARKS
MANAGUA        PTCLDY    81  72  74 E5        29.83F

CARIBBEAN

CITY           SKY/WX    TMP DP  RH WIND       PRES   REMARKS
ARUBA          PTCLDY    81  75  83 E14       29.94S
CURACAO        LGT RAIN  81  75  83 E12       29.97S
KINGSTON       PTCLDY    84  73  70 SE14      30.00R HX  91
NASSAU         PTCLDY    82  73  74 SE9       30.12S
SAN JUAN       MOCLDY    82  75  78 E9        30.08F
ST. CROIX      PTCLDY    81  73  78 E12G21    30.09S
ST. MAARTEN    PTCLDY    82  75  78 E10       30.09S
ST. THOMAS     PTCLDY    82  75  78 E12       30.09S

$$



USA.gov is the U.S. government's official web portal to all federal, state and local government web resources and services.